This demonstration page uses our WeatherBlox Daily Observations layout. Learn more.

Left ArrowRight Arrow

44.89941, -97.11507

Hourly Observations for February 10, 2021

Temp ( °F °C ) Dew Point ( °F °C ) Humidity (%) Winds ( mph kmh ) Pressure ( in mb ) Visibility ( mi km ) Precip ( " mm )
12:53 am 00:53 Cloudy 1 -17.2 -7 -21.7 68 68 W 6 9 30.43 1031 10 16 0.00 0.00
1:53 am 01:53 Cloudy 3 -16.1 -9 -22.8 57 57 WNW 7 11 30.44 1031 10 16 0.00 0.00
2:53 am 02:53 Cloudy 2 -16.7 -9 -22.8 59 59 WNW 7 11 30.45 1031 10 16 0.00 0.00
3:53 am 03:53 Cloudy 1 -17.2 -9 -22.8 62 62 WNW 6 9 30.43 1031 10 16 0.00 0.00
4:53 am 04:53 Mostly Cloudy 0 -17.8 -9 -22.8 65 65 WNW 7 11 30.45 1031 10 16 0.00 0.00
5:53 am 05:53 Cloudy 0 -17.8 -8 -22.2 69 69 WNW 8 13 30.46 1032 10 16 0.00 0.00
6:53 am 06:53 Mostly Clear -3 -19.4 -9 -22.8 75 75 WNW 7 11 30.48 1032 10 16 0.00 0.00
7:53 am 07:53 Sunny -4 -20 -10 -23.3 75 75 WNW 7 11 30.50 1033 10 16 0.00 0.00
8:53 am 08:53 Sunny -4 -20 -12 -24.4 68 68 NW 9 15 30.52 1033 10 16 0.00 0.00
9:53 am 09:53 Sunny -3 -19.4 -13 -25 61 61 NW 8 13 30.52 1034 10 16 0.00 0.00
10:53 am 10:53 Sunny -2 -18.9 -13 -25 59 59 NW 9 15 30.52 1034 10 16 0.00 0.00
11:53 am 11:53 Sunny -2 -18.9 -13 -25 59 59 NW 10 17 30.53 1034 10 16 0.00 0.00
12:53 pm 12:53 Sunny -1 -18.3 -12 -24.4 59 59 WNW 10 17 30.51 1033 10 16 0.00 0.00
1:53 pm 13:53 Sunny 0 -17.8 -11 -23.9 59 59 WNW 12 19 30.50 1033 10 16 0.00 0.00
2:53 pm 14:53 Sunny 1 -17.2 -11 -23.9 56 56 WNW 12 19 30.49 1033 10 16 0.00 0.00
3:53 pm 15:53 Sunny 0 -17.8 -12 -24.4 57 57 WNW 10 17 30.50 1033 10 16 0.00 0.00
5:53 pm 17:53 Clear -2 -18.9 -12 -24.4 62 62 NW 6 9 30.52 1034 10 16 0.00 0.00
6:53 pm 18:53 Clear -3 -19.4 -12 -24.4 65 65 NW 5 7 30.54 1034 10 16 0.00 0.00
7:53 pm 19:53 Clear -4 -20 -12 -24.4 68 68 WNW 3 6 30.55 1035 10 16 0.00 0.00
8:53 pm 20:53 Clear -6 -21.1 -12 -24.4 75 75 W 3 6 30.56 1035 10 16 0.00 0.00
9:53 pm 21:53 Clear -10 -23.3 -15 -26.1 78 78 N 5 7 30.57 1035 10 16 0.00 0.00
10:53 pm 22:53 Mostly Clear -10 -23.3 -15 -26.1 78 78 N 5 7 30.60 1036 10 16 0.00 0.00
11:53 pm 23:53 Clear -10 -23.3 -15 -26.1 78 78 N 6 9 30.60 1036 10 16 0.00 0.00

Powered by AerisWeather